[[{"header":{"parameterUnit":"m.s-1","parameterCategory":1,"la1":30.2991,"la2":30.254,"lo1":-89.0895,"lo2":-89.0444,"dy":0.0017,"dx":0.0017,"nx":28,"ny":28,"refTime":"2023-06-26T21:00:00:Z","depth":0,"parameterNumber":2,"parameterNumberName":"U-component_of_WINDS"},"data":[0,0,0,0,0,0,0,0,0,0,0,0,0,0,0,0,0,0,0,0,0,0,0,0,0,0,0,0,0,0,0,0,0,0,0,0,0,0,0,0,0,0,0,0,0,0,0,0,0,0,0,0,0,0,0,0,0,0,2.1471,2.1469,0,2.1307,2.1305,2.1303,2.1201,2.12,2.1199,2.1199,2.1034,2.103,2.1026,0,0,0,0,0,0,0,0,0,0,0,0,0,2.17,2.1697,2.1471,2.1469,2.1467,2.1307,2.1305,2.1303,2.1201,2.12,2.1199,2.1199,2.1035,2.1031,2.1026,0,0,0,0,0,0,0,0,0,0,0,0,0,2.1575,2.1695,2.1471,2.1397,2.1388,2.1308,2.1305,2.1302,2.1201,2.12,2.1199,2.1198,2.1037,2.1031,2.1025,2.1007,0,0,2.1008,2.1005,0,0,0,0,0,0,0,0,2.1582,2.1567,2.141,2.1402,2.1392,2.1273,2.1325,2.1203,2.1201,2.1272,2.1199,2.1198,2.1114,2.1102,2.1073,2.0999,2.0992,2.1007,2.1004,2.1001,2.0999,0,0,0,0,0,0,0,2.1591,2.1573,2.1406,2.1408,2.1397,2.1373,2.1354,2.1302,2.12,2.1266,2.1258,2.124,2.1109,2.1079,2.1069,2.099,2.1007,2.1002,2.0998,2.0996,2.0895,2.0896,0,0,0,0,0,0,2.1611,2.1581,2.1411,2.1401,2.1487,2.1369,2.1348,2.1312,2.12,2.1183,2.1241,2.1236,2.109,2.1076,2.1063,2.1036,2.1001,2.0996,2.0992,2.0895,2.0896,2.0896,0,0,0,0,0,0,2.1616,2.1597,2.1418,2.1489,2.1464,2.1366,2.1327,2.131,2.1279,2.1181,2.1163,2.1228,2.1088,2.1071,2.1022,2.1029,2.0993,2.0988,2.0894,2.0895,2.0896,2.0981,0,0,0,0,0,0,2.1623,2.1599,2.159,2.1489,2.1461,2.1379,2.1327,2.1307,2.1269,2.1261,2.1165,2.1148,2.1086,2.1031,2.1016,2.102,2.0983,2.0893,2.0894,2.0896,2.0977,2.0985,2.0992,0,0,0,0,0,2.1632,2.162,2.159,2.157,2.1447,2.1379,2.1363,2.1291,2.127,2.1261,2.1199,2.1151,2.103,2.1027,2.1009,2.1011,2.0892,2.0894,2.0896,2.0974,2.0984,2.0992,0,0,0,0,0,0,2.1724,2.1606,2.1571,2.1526,2.1464,2.1362,2.1348,2.1303,2.1246,2.1241,2.1155,2.1135,2.1095,2.1048,2.1047,2.0989,2.0956,2.0954,2.1022,2.103,2.1037,2.105,2.0978,0,0,0,0,0,2.174,2.1694,2.1593,2.1563,2.1534,2.1447,2.1415,2.1365,2.1297,2.127,2.1204,2.1141,2.1089,2.1057,2.1003,2.097,2.0949,2.0963,2.097,2.0977,2.0977,2.0959,2.0964,2.0902,2.0902,2.0902,0,0,2.1771,2.17,2.1676,2.158,2.1526,2.1482,2.1425,2.138,2.1347,2.1264,2.1214,2.1164,2.1088,2.1048,2.1027,2.1007,2.0989,2.0979,2.0985,2.0981,2.0961,2.0967,2.0973,2.0904,2.0903,2.0903,0,0,2.1805,2.1746,2.1716,2.1663,2.1582,2.1525,2.1518,2.1424,2.1387,2.1336,2.1273,2.1234,2.1145,2.1094,2.1057,2.1076,2.1031,2.1061,2.1099,2.1082,2.1087,2.1091,2.11,2.1104,2.1061,2.1061,2.1061,0,2.1854,2.1783,2.1707,2.1666,2.1627,2.1549,2.152,2.1473,2.1379,2.1354,2.1334,2.1223,2.1166,2.1115,2.112,2.1091,2.1083,2.1071,2.1093,2.1096,2.1098,2.1106,2.111,2.1065,2.1065,2.1064,2.1064,0,2.1849,2.1802,2.1788,2.17,2.1659,2.1624,2.1544,2.1512,2.1467,2.1413,2.1363,2.1293,2.1225,2.1209,2.1164,2.1152,2.1143,2.1109,2.1073,2.111,2.1116,2.1118,2.1071,2.107,2.1068,2.1067,0,0,2.1936,2.1807,2.1803,2.1764,2.167,2.1632,2.1596,2.1529,2.1505,2.1443,2.1412,2.134,2.1309,2.1267,2.1215,2.1201,2.1224,2.1168,2.1165,2.1183,2.121,2.1238,2.1242,2.1193,2.1193,2.1193,2.1217,0,2.1958,2.1887,2.1818,2.1772,2.173,2.1657,2.1625,2.1565,2.1514,2.1472,2.1415,2.1367,2.1328,2.1302,2.1284,2.1225,2.1228,2.1222,2.1165,2.1164,2.1189,2.1245,2.1273,2.1299,2.1219,2.1219,2.1219,0,2.1973,2.1916,2.1867,2.1779,2.1759,2.1732,2.1667,2.1626,2.1558,2.1522,2.1477,2.1423,2.1383,2.1352,2.1297,2.1295,2.1268,2.1235,2.1234,2.1228,2.1195,2.1242,2.1305,2.131,2.1221,2.1221,2.1221,0,2.2045,2.1955,2.1914,2.1882,2.1779,2.1762,2.1719,2.1649,2.1615,2.1559,2.1536,2.1476,2.1444,2.14,2.1332,2.1315,2.1286,2.1248,2.1257,2.1259,2.1255,2.1256,2.1317,2.1235,2.1234,2.1234,2.1234,0,2.2077,2.2051,2.1946,2.1921,2.189,2.1812,2.1784,2.1734,2.1674,2.164,2.1572,2.1542,2.1454,2.1414,2.1361,2.1325,2.131,2.1282,2.1269,2.1289,2.1293,2.1271,2.1269,2.1235,2.1235,2.1235,2.1235,0,2.2152,2.208,2.2032,2.1939,2.1915,2.1897,2.1818,2.1792,2.1738,2.1696,2.1682,2.1597,2.1547,2.1475,2.1402,2.1367,2.134,2.1317,2.1364,2.1356,2.137,2.1371,2.142,2.1423,2.1338,2.1339,2.1339,0,2.2178,2.2156,2.2062,2.2034,2.1993,2.1949,2.1914,2.1837,2.1804,2.1726,2.1711,2.1655,2.1607,2.153,2.1463,2.1408,2.1385,2.1406,2.1376,2.1399,2.1388,2.1391,2.139,2.1414,2.1415,2.1416,2.1417,0,2.2234,2.22,2.2152,2.2092,2.2053,2.2002,2.1948,2.1929,2.1842,2.1808,2.1756,2.1718,2.1645,2.1592,2.1528,2.1485,2.1438,2.1427,2.1426,2.1448,2.1477,2.1464,2.1386,2.1426,2.1425,2.1425,2.1424,2.1424,2.2286,2.2265,2.2196,2.2145,2.2097,2.2049,2.2022,2.1965,2.192,2.1854,2.1812,2.1763,2.1698,2.1608,2.1567,2.1528,2.1509,2.1507,2.1507,2.1509,2.1517,2.1482,2.1516,2.1516,2.1515,2.1515,2.1515,0,2.234,2.2293,2.2247,2.2175,2.2136,2.2094,2.2034,2.2004,2.1962,2.1905,2.1859,2.1801,2.175,2.168,2.1624,2.1607,2.1584,2.1595,2.1597,2.1588,2.1537,2.1544,2.1615,2.1615,2.1615,2.1615,2.1615,2.1615,2.2364,2.2326,2.2285,2.2224,2.2177,2.2128,2.2098,2.2054,2.2009,2.1947,2.1904,2.1859,2.1797,2.1737,2.1689,2.167,2.1653,2.1672,2.1647,2.16,2.1591,2.1583,2.1589,2.1668,2.1668,2.1701,2.1701,2.1702]},{"header":{"parameterUnit":"m.s-1","parameterCategory":1,"la1":30.2991,"la2":30.254,"lo1":-89.0895,"lo2":-89.0444,"dy":0.0017,"dx":0.0017,"nx":28,"ny":28,"refTime":"2023-06-26T21:00:00:Z","depth":0,"parameterNumber":3,"parameterNumberName":"V-component_of_WINDS"},"data":[0,0,0,0,0,0,0,0,0,0,0,0,0,0,0,0,0,0,0,0,0,0,0,0,0,0,0,0,0,0,0,0,0,0,0,0,0,0,0,0,0,0,0,0,0,0,0,0,0,0,0,0,0,0,0,0,0,0,1.4966,1.4969,0,1.5221,1.5224,1.5227,1.5242,1.5239,1.5236,1.5233,1.5496,1.5505,1.5515,0,0,0,0,0,0,0,0,0,0,0,0,0,1.449,1.4499,1.4966,1.4969,1.4972,1.5221,1.5224,1.5228,1.5242,1.5238,1.5235,1.5232,1.5492,1.5504,1.5516,0,0,0,0,0,0,0,0,0,0,0,0,0,1.4716,1.4501,1.4965,1.5009,1.5016,1.522,1.5224,1.5229,1.5243,1.5238,1.5234,1.523,1.5489,1.5503,1.5517,1.5695,0,0,1.5562,1.5568,0,0,0,0,0,0,0,0,1.4703,1.4734,1.4999,1.5006,1.5014,1.5195,1.5153,1.5385,1.5244,1.5157,1.5233,1.5228,1.5399,1.5421,1.5479,1.5708,1.5719,1.5563,1.5572,1.5578,1.5582,0,0,0,0,0,0,0,1.4688,1.4723,1.5067,1.5003,1.5012,1.5016,1.5043,1.5197,1.53,1.5164,1.5165,1.5195,1.5402,1.5464,1.5485,1.5723,1.5563,1.5576,1.5585,1.559,1.6108,1.6113,0,0,0,0,0,0,1.4663,1.4709,1.5059,1.5074,1.4845,1.5028,1.5059,1.5141,1.5298,1.5317,1.5199,1.5195,1.5442,1.5468,1.5494,1.5711,1.5578,1.5592,1.56,1.6103,1.6109,1.6114,0,0,0,0,0,0,1.4653,1.4694,1.5048,1.4893,1.4938,1.5041,1.5134,1.5149,1.5211,1.5324,1.5343,1.5243,1.5439,1.5474,1.5644,1.572,1.5598,1.5612,1.6097,1.6105,1.6112,1.6147,0,0,0,0,0,0,1.4639,1.4691,1.476,1.4894,1.4946,1.5195,1.5139,1.5157,1.5236,1.5233,1.5371,1.539,1.5438,1.5623,1.5659,1.5738,1.5623,1.6091,1.61,1.6109,1.614,1.6155,1.6168,0,0,0,0,0,1.4622,1.4761,1.4763,1.4805,1.5035,1.5199,1.5229,1.5282,1.5242,1.5312,1.5384,1.5385,1.5706,1.564,1.5681,1.5766,1.6086,1.6098,1.6109,1.6133,1.6152,1.6168,0,0,0,0,0,0,1.4634,1.4779,1.4784,1.4969,1.5072,1.5201,1.5291,1.53,1.5417,1.541,1.5471,1.5502,1.567,1.5735,1.5659,1.5945,1.5892,1.5911,1.5896,1.5915,1.5929,1.5909,1.5635,0,0,0,0,0,1.4658,1.4779,1.49,1.5052,1.5103,1.5188,1.5262,1.5293,1.5402,1.5446,1.5531,1.5636,1.5761,1.5842,1.5963,1.6149,1.6178,1.6227,1.6241,1.6253,1.6269,1.637,1.6392,1.6151,1.6151,1.6151,0,0,1.4709,1.4803,1.4877,1.5056,1.5139,1.5263,1.5225,1.5358,1.545,1.5466,1.5632,1.5698,1.582,1.5998,1.6081,1.6058,1.6342,1.6267,1.6275,1.6286,1.6384,1.6406,1.6427,1.6159,1.6157,1.6156,0,0,1.4865,1.4949,1.5084,1.5167,1.5293,1.5348,1.538,1.5509,1.5553,1.572,1.5734,1.5844,1.6058,1.6143,1.6214,1.6399,1.6404,1.6437,1.6511,1.6609,1.6628,1.6645,1.6709,1.6731,1.6453,1.6453,1.6453,0,1.4913,1.51,1.5153,1.5285,1.5363,1.5382,1.5518,1.5596,1.5755,1.5808,1.578,1.6046,1.6129,1.6327,1.6371,1.6429,1.6467,1.6422,1.6621,1.6638,1.6655,1.6717,1.6741,1.6456,1.6456,1.6456,1.6455,0,1.5152,1.5281,1.5375,1.5526,1.5615,1.5749,1.582,1.5904,1.5927,1.5985,1.6153,1.6254,1.6394,1.6443,1.6468,1.6644,1.6625,1.6608,1.6555,1.668,1.6739,1.6764,1.6461,1.646,1.6459,1.6458,0,0,1.5324,1.55,1.5534,1.5601,1.574,1.5841,1.5975,1.6111,1.618,1.6288,1.6401,1.658,1.6564,1.6644,1.6679,1.6765,1.6902,1.6737,1.674,1.6762,1.7099,1.711,1.7137,1.6905,1.691,1.6914,1.7088,0,1.5494,1.5732,1.5782,1.5988,1.6106,1.6124,1.6241,1.6338,1.6395,1.6504,1.6567,1.6692,1.6662,1.6711,1.6796,1.6867,1.697,1.6855,1.701,1.7015,1.6978,1.7168,1.7182,1.7341,1.7112,1.7116,1.7119,0,1.5725,1.5837,1.6054,1.6174,1.6226,1.6329,1.6457,1.6561,1.6671,1.6706,1.6795,1.6819,1.6957,1.6898,1.7088,1.7009,1.7075,1.7119,1.7126,1.7142,1.7074,1.7188,1.7394,1.7417,1.7156,1.7153,1.715,0,1.5827,1.6032,1.6187,1.6245,1.639,1.6461,1.6525,1.663,1.6708,1.6819,1.687,1.6996,1.7065,1.7162,1.7219,1.717,1.7404,1.735,1.7436,1.7435,1.7485,1.7481,1.7702,1.7529,1.7529,1.7528,1.7528,0,1.6011,1.6143,1.6234,1.633,1.6477,1.6533,1.6677,1.674,1.6833,1.694,1.6964,1.7064,1.7134,1.7244,1.729,1.7439,1.7471,1.7502,1.7512,1.75,1.7495,1.7543,1.7533,1.7535,1.7533,1.7532,1.7531,0,1.6149,1.6216,1.6387,1.6509,1.6542,1.6645,1.6749,1.6842,1.6899,1.7034,1.7069,1.7158,1.7288,1.7355,1.7518,1.7548,1.7716,1.772,1.7678,1.7682,1.7764,1.7755,1.8024,1.8061,1.7864,1.7866,1.7867,0,1.6262,1.6363,1.6495,1.6569,1.6633,1.6751,1.683,1.6888,1.6969,1.71,1.7176,1.7307,1.7415,1.7622,1.7701,1.7825,1.7831,1.7917,1.785,1.7833,1.7831,1.7823,1.7833,1.7929,1.793,1.7932,1.7933,0,1.6455,1.6482,1.6594,1.6718,1.6811,1.6911,1.701,1.7069,1.7142,1.7232,1.7364,1.7448,1.7612,1.7742,1.7871,1.7936,1.7947,1.7953,1.798,1.7967,1.7938,1.7953,1.7709,1.7947,1.7946,1.7945,1.7944,1.7943,1.6583,1.6673,1.6779,1.6902,1.6982,1.7073,1.7166,1.7233,1.7344,1.7482,1.751,1.765,1.7754,1.7929,1.7997,1.8107,1.8089,1.8127,1.8137,1.8145,1.8148,1.7921,1.8131,1.8131,1.813,1.813,1.813,0,1.6775,1.6843,1.6956,1.7093,1.719,1.719,1.7299,1.738,1.7503,1.7599,1.7704,1.7855,1.798,1.8067,1.8194,1.8264,1.8272,1.8296,1.829,1.8305,1.8158,1.8122,1.8287,1.8287,1.8287,1.8287,1.8287,1.8287,1.6886,1.7037,1.7076,1.7267,1.7334,1.7471,1.7533,1.7616,1.7693,1.786,1.7964,1.802,1.8112,1.8245,1.8359,1.8381,1.8426,1.8449,1.8471,1.8332,1.8315,1.83,1.8266,1.8458,1.8459,1.8609,1.861,1.8611]}]]